This demonstration page uses our WeatherBlox Daily Observations layout. Learn more.

Left ArrowRight Arrow

44.8408, -93.29828

Hourly Observations for June 22, 2015

Temp ( °F °C ) Dew Point ( °F °C ) Humidity (%) Winds ( mph kmh ) Pressure ( in mb ) Visibility ( mi km ) Precip ( " mm )
12:53 am 00:53 Mostly Cloudy 73 22.8 58 14.4 59 59 SE 9 15 29.82 1010 10 16 0.00 0.00
1:53 am 01:53 Cloudy 74 23.3 60 15.6 62 62 SSE 13 20 29.79 1009 10 16 0.00 0.00
2:53 am 02:53 Cloudy 74 23.3 63 17.2 69 69 S 8 13 29.79 1009 10 16 0.00 0.00
3:53 am 03:53 Cloudy 72 22.2 64 17.8 76 76 SE 5 7 29.75 1008 10 16 0.00 0.00
4:53 am 04:53 Cloudy 71 21.7 64 17.8 79 79 ESE 6 9 29.72 1006 10 16 0.00 0.00
5:14 am 05:14 Cloudy 71 21.7 64 17.8 79 79 E 13 20 29.65 1004 10 16 0.00 0.00
5:53 am 05:53 Cloudy 71 21.7 63 17.2 76 76 SE 10 17 29.68 1005 10 16 0.00 0.00
6:42 am 06:42 Cloudy with Nearby Thunderstorms 72 22 64 18 78 78 ESE 9 15 29.65 1004 10 16 0.00 0.00
6:53 am 06:53 Cloudy with Nearby Thunderstorms 70 21.1 65 18.3 84 84 E 14 22 29.65 1004 7 11 0.01 0.25
7:01 am 07:01 Cloudy with Thunderstorms 70 21.1 65 18.3 84 84 E 15 24 29.62 1003 7 11 0.02 0.51
7:21 am 07:21 Cloudy with Nearby Thunderstorms 69 20.6 66 18.9 90 90 SSE 5 7 29.65 1004 3 4 0.07 1.78
7:24 am 07:24 Cloudy with Nearby Thunderstorms 69 20.6 66 18.9 90 90 VRB 6 9 29.68 1005 1 2 0.09 2.29
7:27 am 07:27 Cloudy with Strong Thunderstorms 69 20.6 66 18.9 90 90 SSE 8 13 29.68 1005 1 1 0.11 2.79
7:37 am 07:37 Cloudy with Strong Thunderstorms 70 21.1 68 20 93 93 ESE 12 19 29.65 1004 1 2 0.39 9.91
7:51 am 07:51 Cloudy with Thunderstorms 70 21 66 19 88 88 NE 13 20 29.65 1004 2 2 0.51 12.95
7:53 am 07:53 Cloudy with Thunderstorms 70 21.1 67 19.4 90 90 NE 13 20 29.67 1005 2 2 0.51 12.95
7:59 am 07:59 Cloudy with Strong Thunderstorms 69 20.6 67 19.4 93 93 N 12 19 29.65 1004 2 2 0.03 0.76
8:13 am 08:13 Cloudy with Strong Thunderstorms 68 20 66 18.9 93 93 VRB 5 7 29.68 1005 3 4 0.11 2.79
8:22 am 08:22 Cloudy with Rain 68 20 66 19 94 94 NNW 7 11 29.68 1005 4 6 0.00 0.00
8:43 am 08:43 Cloudy with Heavy Rain 68 20 67 19.4 96 96 WNW 10 17 29.77 1008 3 4 0.25 6.35
8:49 am 08:49 Cloudy with Heavy Rain 68 20 66 19 94 94 WNW 7 11 29.74 1007 4 6 0.30 7.62
8:53 am 08:53 Cloudy with Heavy Rain 68 20 67 19.4 96 96 VRB 5 7 29.70 1006 4 6 0.33 8.38
8:57 am 08:57 Cloudy with Heavy Rain 68 20 67 19.4 96 96 E 21 33 29.56 1001 4 6 0.02 0.51
9:01 am 09:01 Cloudy with Rain 68 20 67 19.4 96 96 E 31 50 29.44 997 5 8 0.04 1.02
9:07 am 09:07 Cloudy with Light Rain 68 20 66 18.9 93 93 E 26 43 29.38 995 9 14 0.04 1.02
9:16 am 09:16 Cloudy 68 20 66 18.9 93 93 E 23 37 29.38 995 10 16 0.04 1.02
9:40 am 09:40 Mostly Cloudy 69 20.6 65 18.3 87 87 NE 12 19 29.44 997 10 16 0.04 1.02
9:53 am 09:53 Mostly Cloudy 70 21.1 64 17.8 82 82 NE 8 13 29.49 999 10 16 0.04 1.02
10:30 am 10:30 Mostly Cloudy 72 22 64 18 78 78 VRB 5 7 29.53 1000 10 16 0.00 0.00
10:53 am 10:53 Mostly Cloudy 72 22.2 66 18.9 82 82 S 9 15 29.59 1002 10 16 0.00 0.00
11:31 am 11:31 Mostly Cloudy 74 23.3 65 18.3 74 74 SSW 10 17 29.62 1003 10 16 0.00 0.00
11:53 am 11:53 Mostly Cloudy 76 24.4 66 18.9 72 72 WNW 14 22 29.66 1004 10 16 0.00 0.00
12:23 pm 12:23 Mostly Cloudy 77 25 65 18.3 66 66 WSW 14 22 29.65 1004 10 16 0.00 0.00
12:53 pm 12:53 Mostly Cloudy 78 25.6 66 18.9 67 67 W 15 24 29.67 1005 10 16 0.00 0.00
1:53 pm 13:53 Mostly Cloudy 80 26.7 63 17.2 56 56 WSW 17 28 29.67 1005 10 16 0.00 0.00
2:53 pm 14:53 Mostly Cloudy 80 26.7 64 17.8 58 58 W 12 19 29.68 1005 10 16 0.00 0.00
3:53 pm 15:53 Partly Cloudy 82 27.8 62 16.7 51 51 W 22 35 29.68 1005 10 16 0.00 0.00
4:53 pm 16:53 Partly Cloudy 77 25 68 20 74 74 WSW 13 20 29.71 1006 10 16 0.06 1.52
5:53 pm 17:53 Mostly Sunny 80 26.7 58 14.4 47 47 W 18 30 29.73 1007 10 16 0.00 0.00
6:53 pm 18:53 Partly Cloudy 77 25 56 13.3 48 48 WNW 21 33 29.76 1008 10 16 0.00 0.00
7:53 pm 19:53 Mostly Sunny 75 23.9 55 12.8 50 50 NW 18 30 29.80 1009 10 16 0.00 0.00
8:53 pm 20:53 Mostly Sunny 73 22.8 51 10.6 46 46 NW 17 28 29.84 1011 10 16 0.00 0.00
9:53 pm 21:53 Mostly Clear 71 21.7 52 11.1 51 51 NW 16 26 29.88 1012 10 16 0.00 0.00
10:53 pm 22:53 Clear 68 20 51 10.6 55 55 NNW 13 20 29.92 1013 10 16 0.00 0.00
11:53 pm 23:53 Clear 64 17.8 52 11.1 65 65 WNW 8 13 29.95 1014 10 16 0.00 0.00

Powered by AerisWeather